Location: Mt. Graham
(32.7020°N, 109.8880°W)
Time: 12:50:11
(UTC-07:00)

Hubble Space Telescope - Visible Passes

Search period start: 28 February 2024 00:00
Search period end: 09 March 2024 00:00
Orbit: 516 x 519 km, 28.5° (Epoch: 28 February)

Date Brightness Start Highest point End Pass type
(mag) Time Alt. Az. Time Alt. Az. Time Alt. Az.
28 Feb 1.2 19:50:14 10° WSW 19:54:03 44° S 19:54:16 44° S visible
29 Feb 1.4 19:32:48 10° WSW 19:36:36 43° S 19:37:54 31° SE visible
01 Mar 1.5 19:15:23 10° WSW 19:19:09 41° S 19:21:33 19° SE visible
01 Mar 3.9 20:56:27 10° WSW 20:56:28 10° WSW 20:56:28 10° WSW visible
02 Mar 1.7 18:57:57 10° WSW 19:01:41 39° S 19:05:14 11° ESE visible
02 Mar 3.4 20:39:10 10° WSW 20:40:09 14° SW 20:40:09 14° SW visible
03 Mar 1.8 18:40:30 10° WSW 18:44:12 36° S 18:47:54 10° ESE visible
03 Mar 3.1 20:21:55 10° WSW 20:23:51 16° SSW 20:23:51 16° SSW visible
04 Mar 3.1 20:04:46 10° SW 20:06:56 14° SSW 20:07:37 14° SSW visible
05 Mar 3.3 19:47:44 10° SW 19:49:24 12° SSW 19:51:02 10° S visible
06 Mar 3.5 19:31:10 10° SW 19:31:50 10° SSW 19:32:30 10° SSW visible
